STARLINK-1452 (45669 NORAD) Tracking and Keplerian Element Data

This shows tracking and keplerian element data for the satellite.

Feedback or suggestion? Click here.




ElementValue
Catalog45669
NameSTARLINK-1452
Epoch Orbit654
Epoch Day192.16668981
Epoch Year2020
RAAN353.7241
Inclination53.0017
Eccentricity0.0001326
Argument of Perigee82.6611
Mean Anonmoly43.7739
Mean Motion15.31391794
Decay Rate-0.0107098
L11 45669U 20035N 20192.16668981 -.01070980 00000-0 -37998-1 0 9993
L22 45669 53.0017 353.7241 0001326 82.6611 43.7739 15.31391794 6540

Live tracking and technical data element details for STARLINK-1452 (NORAD 45669). STARLINK-1452 can be tracked NOW for your location showing map with azimuth and elevation plus other details from your city location.

Track the satellite on the map from your city or location and see movement details for azimuth, elevation, latitude, longitude, range, height, and movement on the map or in text.







IsCatalogInMostPopularTable: catalog: 45669, numindb: 5
Update: records affected: 1



GetName: 45669 STARLINK-1452

Hit Count: updated at: Fri, 10 Jul 2020 15:32:34 GMT